Weather in Bayanhongor

Mongolia     46°11′12″N   100°42′50″E
temp.,
°C
wind,
m/s
gust,
m/s
humid.,
%
clouds,
%
prec.,
mm/h
press.,
hPa
HPBL,
m
2 august, mon
mon223:00+11se2596100 4.6 1008259
02:00+11sw51190100 8.4 1006963
05:00+9sw3792100 4.4 1005482
08:00+9wsw797824 4.9 1005712
11:00+10wsw81072100 0.2 10041272
14:00+13nw8105834 0.3 10021477
17:00+14nw9105397 0.1 10021515
20:00+11wnw7964100 0.1 1003443
3 august, tue
tue323:00+10wnw4763100 0.0 1005248
02:00+9nw3568100 0.0 1005126
05:00+9nnw2369100 0.0 100662
08:00+10nw3566100 0.0 1007742
11:00+12n475683 0.0 10091416
14:00+12nne556399 0.0 1011887
17:00+14n3653100 0.0 10101448
20:00+14nne225713 0.0 100930
4 august, wed
wed423:00+10nne33660 0.0 101235
02:00+8nne33750 0.0 101344
05:00+8nne33740 0.0 101438
08:00+10nne33650 0.0 1014127
11:00+16wnw12390 0.0 1012929
14:00+19wsw23356 0.0 10092015
17:00+20w43334 0.0 10071971
20:00+18w22477 0.0 100714
5 august, thu
thu523:00+14ssw11555 0.0 100911
02:00+12ene11584 0.0 100910
05:00+11ene116095 0.0 101011
08:00+14ene125381 0.0 100969
11:00+18sse233995 0.0 1007820
14:00+21sw4532100 0.0 10051624
17:00+20w81331100 0.0 10042182
20:00+16n335470 0.0 100549
6 august, fri
fri623:00+14ne115567 0.0 100510
02:00+13nne11554 0.0 100510
05:00+13ne22520 0.0 100411
08:00+15ne11480 0.0 100442
11:00+20sw23330 0.0 1002757
14:00+23wsw71026100 0.0 10012657
17:00+23w7102299 0.0 9992689
20:00+19nw223945 0.0 100013